Date String (YYYY-MM-DD hh:mm:ss) UTC,Instrument flags,absolute air pressure of the measurement (hPa),sample flow rate (lpm),inlet stack bypass flow (lpm),air temperature of the measurement (°C),ambient temperature measured by the external sensor (°C),aerosol sample conditioner tube jacket temperature (°C),OPC LED temperature (°C),internal box temperature (°C),relative humidity of the measurement (%),span deviation,mass concentration of particles derived from Lorenz-Mie calculation of OPC scattering (μg/m³),mass concentration of particles derived from Lorenz-Mie calculation of OPC scattering (μg/m³),mass concentration of particles derived from Lorenz-Mie calculation of OPC scattering (μg/m³)
DateTimeUTC,F1_M11,P_M11,Q1_M11,Q2_M11,T1_M11,T2_M11,T3_M11,T4_M11,T5_M11,U1_M11,ZSPAN_M11,X0_M11,X2_M11,X1_M11
2023-08-24 11:00:00,SystemResetWarning,0833.4,4.99,000.00,028.5,025.6,000.0,036.7,029.8,31.9,0001.2,0014.70,0008.04,0007.14
2023-08-24 11:01:00,SystemResetWarning,0833.4,5.01,000.00,028.4,024.6,000.0,036.5,029.6,32.4,0001.3,0015.51,0008.00,0007.10
2023-08-24 11:02:00,SystemResetWarning,0833.5,5.01,000.00,028.3,024.6,000.0,036.5,029.5,33.2,0001.2,0015.67,0008.02,0007.10
2023-08-24 11:03:00,SystemResetWarning,0833.5,5.00,000.00,028.3,024.9,000.0,036.6,029.5,33.8,0001.2,0015.61,0008.02,0007.10
2023-08-24 11:04:00,SystemResetWarning,0833.5,5.00,000.00,028.2,025.2,000.0,036.6,029.5,34.1,0001.1,0014.66,0007.99,0007.10
2023-08-24 11:05:00,SystemResetWarning,0833.6,5.00,000.00,028.2,025.6,000.0,036.6,029.6,33.8,0001.1,0014.58,0007.95,0007.09
2023-08-24 11:06:00,SystemResetWarning,0833.6,5.00,000.00,028.3,025.9,000.0,036.7,029.7,33.5,0001.5,0014.61,0007.91,0007.05
2023-08-24 11:07:00,SystemResetWarning,0833.6,5.00,000.00,028.3,026.2,000.0,036.7,029.8,33.6,0001.7,0014.62,0007.87,0007.03
2023-08-24 11:08:00,SystemResetWarning,0833.6,5.00,000.00,028.3,026.4,000.0,036.7,029.8,33.8,0002.1,0014.02,0007.87,0007.03
2023-08-24 11:09:00,SystemResetWarning,0833.6,5.00,000.00,028.3,026.6,000.0,036.7,029.9,34.0,0002.3,0013.35,0007.88,0007.00
2023-08-24 11:10:00,SystemResetWarning,0833.6,5.00,000.00,028.4,026.8,000.0,036.7,029.9,33.9,0002.1,0013.43,0007.90,0006.99
2023-08-24 11:11:00,SystemResetWarning,0833.6,5.00,000.00,028.4,027.0,000.0,036.7,030.0,33.8,0002.2,0013.22,0007.89,0006.96
2023-08-24 11:12:00,SystemResetWarning,0833.6,5.00,000.00,028.4,027.1,000.0,036.8,030.0,33.7,0002.0,0012.46,0007.91,0006.95
2023-08-24 11:13:00,SystemResetWarning,0833.6,4.99,000.00,028.5,026.9,000.0,036.7,030.1,33.7,0002.1,0012.26,0007.89,0006.95
2023-08-24 11:14:00,SystemResetWarning,0833.5,4.99,000.00,028.4,025.3,000.0,036.6,029.8,33.7,0002.2,0012.27,0007.88,0006.93
2023-08-24 11:15:00,SystemResetWarning,0833.5,5.02,000.00,028.4,024.6,000.0,036.5,029.6,33.7,0002.4,0012.32,0007.89,0006.92
2023-08-24 11:16:00,SystemResetWarning,0833.5,5.01,000.00,028.3,024.6,000.0,036.5,029.5,33.8,0002.5,0013.02,0007.89,0006.92
2023-08-24 11:17:00,SystemResetWarning,0833.5,5.00,000.00,028.2,024.9,000.0,036.6,029.5,34.0,0002.3,0012.93,0007.87,0006.94
2023-08-24 11:18:00,SystemResetWarning,0833.5,5.00,000.00,028.2,025.3,000.0,036.6,029.6,33.9,0002.2,0012.92,0007.87,0006.94
2023-08-24 11:19:00,SystemResetWarning,0833.5,5.00,000.00,028.2,025.7,000.0,036.6,029.7,33.9,0001.9,0012.80,0007.80,0006.93
2023-08-24 11:20:00,SystemResetWarning,0833.5,5.00,000.00,028.2,026.0,000.0,036.7,029.7,33.9,0001.8,0012.76,0007.76,0006.93
2023-08-24 11:21:00,SystemResetWarning,0833.5,4.99,000.00,028.2,026.2,000.0,036.7,029.8,33.9,0001.9,0012.68,0007.74,0006.93
2023-08-24 11:22:00,SystemResetWarning,0833.6,5.00,000.00,028.3,026.5,000.0,036.7,029.8,33.9,0001.9,0013.28,0007.76,0006.94
2023-08-24 11:23:00,SystemResetWarning,0833.6,5.00,000.00,028.3,026.7,000.0,036.7,029.9,33.7,0001.5,0013.94,0007.74,0006.94
2023-08-24 11:24:00,SystemResetWarning,0833.6,5.01,000.00,028.3,026.9,000.0,036.7,030.0,33.6,0001.4,0014.07,0007.73,0006.95
2023-08-24 11:25:00,SystemResetWarning,0833.7,5.00,000.00,028.4,027.0,000.0,036.7,030.0,33.5,0001.1,0014.69,0007.75,0006.95
2023-08-24 11:26:00,SystemResetWarning,0833.7,4.98,000.00,028.4,027.1,000.0,036.7,030.0,33.4,0000.8,0015.05,0007.76,0006.96
2023-08-24 11:27:00,SystemResetWarning,0833.6,5.00,000.00,028.4,026.8,000.0,036.7,030.0,33.3,0000.9,0014.41,0007.76,0006.97
2023-08-24 11:28:00,SystemResetWarning,0833.6,5.00,000.00,028.4,025.1,000.0,036.6,029.8,33.4,0001.0,0014.38,0007.80,0006.97
2023-08-24 11:29:00,SystemResetWarning,0833.6,5.00,000.00,028.3,024.4,000.0,036.5,029.6,33.6,0001.0,0014.44,0007.82,0006.96
2023-08-24 11:30:00,SystemResetWarning,0833.6,5.01,000.00,028.2,024.6,000.0,036.5,029.5,33.8,0001.2,0014.55,0007.87,0006.97
2023-08-24 11:31:00,SystemResetWarning,0833.6,5.01,000.00,028.1,024.9,000.0,036.5,029.5,33.8,0001.0,0014.51,0007.90,0006.97
2023-08-24 11:32:00,SystemResetWarning,0833.6,4.99,000.00,028.1,025.3,000.0,036.6,029.5,33.8,0000.8,0014.64,0007.93,0007.00
2023-08-24 11:33:00,SystemResetWarning,0833.6,5.00,000.00,028.1,025.6,000.0,036.6,029.6,34.0,0000.6,0014.13,0007.93,0007.00
2023-08-24 11:34:00,SystemResetWarning,0833.6,5.00,000.00,028.2,025.9,000.0,036.6,029.7,33.7,0000.7,0013.61,0007.94,0007.02
2023-08-24 11:35:00,SystemResetWarning,0833.6,4.99,000.00,028.2,026.2,000.0,036.6,029.8,33.0,0000.7,0013.95,0007.95,0007.02
2023-08-24 11:36:00,SystemResetWarning,0833.6,5.00,000.00,028.2,026.4,000.0,036.6,029.8,32.8,0000.8,0013.49,0007.96,0007.04
2023-08-24 11:37:00,SystemResetWarning,0833.6,5.01,000.00,028.2,026.6,000.0,036.6,029.9,32.9,0001.0,0013.10,0007.94,0007.07
2023-08-24 11:38:00,SystemResetWarning,0833.6,5.00,000.00,028.3,026.8,000.0,036.6,029.9,32.8,0000.6,0013.24,0007.98,0007.10
2023-08-24 11:39:00,SystemResetWarning,0833.7,5.00,000.00,028.3,027.0,000.0,036.7,030.0,32.7,0000.6,0013.35,0007.99,0007.13
2023-08-24 11:40:00,SystemResetWarning,0833.7,5.00,000.00,028.3,027.1,000.0,036.7,030.0,32.6,0000.8,0013.32,0008.01,0007.17
2023-08-24 11:41:00,SystemResetWarning,0833.7,5.01,000.00,028.4,027.2,000.0,036.7,030.0,32.6,0000.6,0013.37,0008.06,0007.23
2023-08-24 11:42:00,SystemResetWarning,0833.7,4.99,000.00,028.4,027.2,000.0,036.7,030.1,32.5,0000.6,0013.67,0008.08,0007.27
2023-08-24 11:43:00,SystemResetWarning,0833.6,4.98,000.00,028.4,026.0,000.0,036.6,029.9,32.4,0000.6,0013.63,0008.11,0007.31
2023-08-24 11:44:00,SystemResetWarning,0833.6,5.01,000.00,028.3,024.7,000.0,036.5,029.6,32.5,0000.7,0013.54,0008.19,0007.36
2023-08-24 11:45:00,SystemResetWarning,0833.6,5.01,000.00,028.2,024.5,000.0,036.5,029.5,32.8,0001.1,0013.47,0008.23,0007.41
2023-08-24 11:46:00,SystemResetWarning,0833.6,5.00,000.00,028.1,024.8,000.0,036.5,029.4,33.0,0001.2,0013.15,0008.30,0007.44
2023-08-24 11:47:00,SystemResetWarning,0833.5,5.00,000.00,028.1,025.1,000.0,036.6,029.5,33.1,0001.1,0013.13,0008.33,0007.45
2023-08-24 11:48:00,SystemResetWarning,0833.5,5.00,000.00,028.1,025.5,000.0,036.6,029.6,33.1,0001.4,0013.03,0008.34,0007.46
2023-08-24 11:49:00,SystemResetWarning,0833.6,5.01,000.00,028.1,025.8,000.0,036.6,029.7,33.0,0001.7,0012.91,0008.35,0007.47
2023-08-24 11:50:00,SystemResetWarning,0833.6,4.99,000.00,028.2,026.1,000.0,036.6,029.7,33.0,0002.0,0013.01,0008.36,0007.51
2023-08-24 11:51:00,SystemResetWarning,0833.6,5.00,000.00,028.2,026.4,000.0,036.6,029.8,33.0,0002.0,0013.42,0008.36,0007.52
2023-08-24 11:52:00,SystemResetWarning,0833.6,5.00,000.00,028.2,026.6,000.0,036.6,029.8,32.8,0002.1,0013.41,0008.35,0007.52
2023-08-24 11:53:00,SystemResetWarning,0833.7,5.00,000.00,028.2,026.7,000.0,036.7,029.9,32.7,0002.3,0013.22,0008.39,0007.54
2023-08-24 11:54:00,SystemResetWarning,0833.7,5.00,000.00,028.3,026.9,000.0,036.7,029.9,32.6,0002.3,0013.54,0008.39,0007.53
2023-08-24 11:55:00,SystemResetWarning,0833.7,5.00,000.00,028.3,027.0,000.0,036.7,030.0,32.6,0002.0,0013.54,0008.38,0007.54
2023-08-24 11:56:00,SystemResetWarning,0833.7,4.99,000.00,028.3,027.1,000.0,036.7,030.0,32.5,0001.7,0013.75,0008.36,0007.52
2023-08-24 11:57:00,SystemResetWarning,0833.7,4.99,000.00,028.4,027.2,000.0,036.7,030.1,32.5,0001.9,0014.26,0008.34,0007.53
2023-08-24 11:58:00,SystemResetWarning,0833.7,5.00,000.00,028.4,027.2,000.0,036.7,030.1,32.3,0001.9,0014.25,0008.35,0007.54
2023-08-24 11:59:00,SystemResetWarning,0833.7,5.00,000.00,028.4,025.9,000.0,036.6,029.9,32.4,0001.7,0014.23,0008.34,0007.54
